Time,TemperatureF,DewpointF,PressureIn,WindDirection,WindDirectionDegrees,WindSpeedMPH,WindSpeedGustMPH,Humidity,HourlyPrecipIn,Conditions,Clouds,dailyrainin,SoftwareType,DateUTC
2013-02-09 00:01:00,37.0,33.0,30.14,NW,318,2.0,7.0,84,0.00,,,0.01,,2013-02-09 00:01:00,
2013-02-09 00:11:00,37.0,33.0,30.14,NW,318,2.0,7.0,84,0.00,,,0.01,,2013-02-09 00:11:00,
2013-02-09 00:21:00,37.0,33.0,30.14,NW,318,2.0,7.0,84,0.00,,,0.01,,2013-02-09 00:21:00,
2013-02-09 00:52:00,36.0,32.0,30.14,SE,126,1.0,7.0,86,0.00,,,0.01,,2013-02-09 00:52:00,
2013-02-09 01:01:00,36.0,32.0,30.14,SE,126,1.0,7.0,86,0.00,,,0.01,,2013-02-09 01:01:00,
2013-02-09 01:11:00,36.0,32.0,30.14,SE,126,1.0,7.0,86,0.00,,,0.01,,2013-02-09 01:11:00,
2013-02-09 01:21:00,36.0,32.0,30.13,NW,314,1.0,5.0,86,0.00,,,0.01,,2013-02-09 01:21:00,
2013-02-09 01:31:00,36.0,33.0,30.14,North,0,0.0,2.0,87,0.00,,,0.01,,2013-02-09 01:31:00,
2013-02-09 01:41:00,36.0,33.0,30.14,North,0,0.0,2.0,87,0.00,,,0.01,,2013-02-09 01:41:00,
2013-02-09 01:52:00,36.0,33.0,30.14,North,0,0.0,2.0,87,0.00,,,0.01,,2013-02-09 01:52:00,
2013-02-09 02:01:00,35.0,32.0,30.14,North,0,0.0,2.0,88,0.00,,,0.01,,2013-02-09 02:01:00,
2013-02-09 02:11:00,35.0,32.0,30.14,North,0,0.0,1.0,88,0.00,,,0.01,,2013-02-09 02:11:00,
2013-02-09 02:21:00,35.0,32.0,30.14,North,0,0.0,1.0,88,0.00,,,0.01,,2013-02-09 02:21:00,
2013-02-09 02:32:00,35.0,32.0,30.14,North,0,0.0,1.0,88,0.00,,,0.01,,2013-02-09 02:32:00,
2013-02-09 02:41:00,35.0,32.0,30.14,North,0,0.0,1.0,88,0.00,,,0.01,,2013-02-09 02:41:00,
2013-02-09 02:52:00,35.0,32.0,30.14,North,0,0.0,1.0,88,0.00,,,0.01,,2013-02-09 02:52:00,
2013-02-09 03:01:00,35.0,32.0,30.14,North,0,0.0,1.0,88,0.00,,,0.01,,2013-02-09 03:01:00,
2013-02-09 03:11:00,35.0,32.0,30.14,North,0,0.0,1.0,88,0.00,,,0.01,,2013-02-09 03:11:00,
2013-02-09 03:21:00,34.0,31.0,30.14,North,0,0.0,0.0,90,0.00,,,0.01,,2013-02-09 03:21:00,
2013-02-09 03:22:00,34.0,31.0,30.14,North,0,0.0,0.0,89,0.00,,,0.01,,2013-02-09 03:22:00,
2013-02-09 03:32:00,34.0,31.0,30.14,North,0,0.0,0.0,89,0.00,,,0.01,,2013-02-09 03:32:00,
2013-02-09 03:42:00,34.0,31.0,30.14,North,0,0.0,0.0,89,0.00,,,0.01,,2013-02-09 03:42:00,
2013-02-09 03:52:00,34.0,31.0,30.14,North,0,0.0,0.0,90,0.00,,,0.01,,2013-02-09 03:52:00,
2013-02-09 04:01:00,34.0,31.0,30.14,North,0,0.0,0.0,90,0.00,,,0.01,,2013-02-09 04:01:00,
2013-02-09 04:11:00,34.0,31.0,30.14,North,0,0.0,0.0,90,0.00,,,0.01,,2013-02-09 04:11:00,
2013-02-09 04:52:00,34.0,32.0,30.13,North,0,0.0,0.0,91,0.00,,,0.01,,2013-02-09 04:52:00,
2013-02-09 05:02:00,34.0,32.0,30.13,North,0,0.0,0.0,91,0.00,,,0.01,,2013-02-09 05:02:00,
2013-02-09 05:12:00,34.0,32.0,30.13,North,0,0.0,0.0,91,0.00,,,0.01,,2013-02-09 05:12:00,
2013-02-09 05:22:00,34.0,32.0,30.13,North,0,0.0,0.0,91,0.00,,,0.01,,2013-02-09 05:22:00,
2013-02-09 05:32:00,34.0,32.0,30.12,North,0,0.0,0.0,92,0.00,,,0.01,,2013-02-09 05:32:00,
2013-02-09 05:42:00,34.0,32.0,30.12,North,0,0.0,0.0,92,0.00,,,0.01,,2013-02-09 05:42:00,
2013-02-09 05:52:00,34.0,32.0,30.12,North,0,0.0,1.0,92,0.00,,,0.01,,2013-02-09 05:52:00,
2013-02-09 06:01:00,34.0,32.0,30.12,North,0,0.0,1.0,92,0.00,,,0.01,,2013-02-09 06:01:00,
2013-02-09 06:11:00,34.0,32.0,30.12,North,0,0.0,1.0,92,0.00,,,0.01,,2013-02-09 06:11:00,
2013-02-09 06:21:00,34.0,32.0,30.12,North,0,0.0,1.0,92,0.00,,,0.01,,2013-02-09 06:21:00,
2013-02-09 06:52:00,35.0,33.0,30.12,North,0,0.0,0.0,91,0.00,,,0.01,,2013-02-09 06:52:00,
2013-02-09 07:01:00,35.0,33.0,30.12,North,0,0.0,0.0,91,0.00,,,0.01,,2013-02-09 07:01:00,
2013-02-09 07:11:00,35.0,33.0,30.12,North,0,0.0,0.0,91,0.00,,,0.01,,2013-02-09 07:11:00,
2013-02-09 07:21:00,35.0,33.0,30.12,North,0,0.0,1.0,91,0.00,,,0.01,,2013-02-09 07:21:00,
2013-02-09 07:31:00,35.0,33.0,30.12,North,0,0.0,0.0,91,0.00,,,0.01,,2013-02-09 07:31:00,
2013-02-09 07:42:00,35.0,33.0,30.12,North,0,0.0,0.0,91,0.00,,,0.01,,2013-02-09 07:42:00,
2013-02-09 07:51:00,35.0,33.0,30.12,North,0,0.0,1.0,92,0.00,,,0.01,,2013-02-09 07:51:00,
2013-02-09 08:01:00,35.0,33.0,30.12,North,0,0.0,1.0,92,0.00,,,0.01,,2013-02-09 08:01:00,
2013-02-09 08:11:00,35.0,33.0,30.12,North,0,0.0,1.0,92,0.00,,,0.01,,2013-02-09 08:11:00,
2013-02-09 08:21:00,35.0,33.0,30.12,North,0,0.0,1.0,92,0.00,,,0.01,,2013-02-09 08:21:00,
2013-02-09 08:31:00,36.0,34.0,30.12,North,0,0.0,1.0,92,0.00,,,0.01,,2013-02-09 08:31:00,
2013-02-09 08:42:00,36.0,34.0,30.12,North,0,0.0,1.0,92,0.00,,,0.01,,2013-02-09 08:42:00,
2013-02-09 08:52:00,36.0,34.0,30.12,North,0,0.0,1.0,92,0.00,,,0.01,,2013-02-09 08:52:00,
2013-02-09 09:02:00,36.0,34.0,30.12,North,0,0.0,1.0,92,0.00,,,0.01,,2013-02-09 09:02:00,
2013-02-09 09:11:00,36.0,34.0,30.12,North,0,0.0,1.0,92,0.00,,,0.01,,2013-02-09 09:11:00,
2013-02-09 09:21:00,36.0,34.0,30.12,WNW,288,1.0,3.0,92,0.00,,,0.01,,2013-02-09 09:21:00,
2013-02-09 09:31:00,36.0,34.0,30.12,North,0,0.0,4.0,92,0.00,,,0.01,,2013-02-09 09:31:00,
2013-02-09 09:41:00,36.0,34.0,30.12,North,0,0.0,4.0,92,0.00,,,0.01,,2013-02-09 09:41:00,
2013-02-09 09:51:00,36.0,34.0,30.12,North,0,0.0,4.0,92,0.00,,,0.01,,2013-02-09 09:51:00,
2013-02-09 10:01:00,37.0,35.0,30.12,North,0,0.0,2.0,92,0.00,,,0.01,,2013-02-09 10:01:00,
2013-02-09 10:11:00,37.0,35.0,30.12,North,0,0.0,2.0,92,0.00,,,0.01,,2013-02-09 10:11:00,
2013-02-09 10:21:00,37.0,35.0,30.12,North,0,0.0,2.0,92,0.00,,,0.01,,2013-02-09 10:21:00,
2013-02-09 10:31:00,37.0,35.0,30.12,North,0,0.0,2.0,92,0.00,,,0.01,,2013-02-09 10:31:00,
2013-02-09 10:42:00,37.0,35.0,30.12,North,0,0.0,2.0,92,0.00,,,0.01,,2013-02-09 10:42:00,
2013-02-09 10:52:00,37.0,35.0,30.12,North,0,0.0,2.0,92,0.00,,,0.01,,2013-02-09 10:52:00,
2013-02-09 11:01:00,37.0,35.0,30.11,North,0,0.0,1.0,92,0.00,,,0.01,,2013-02-09 11:01:00,
2013-02-09 11:11:00,37.0,35.0,30.11,North,0,0.0,1.0,92,0.00,,,0.01,,2013-02-09 11:11:00,
2013-02-09 11:21:00,37.0,35.0,30.11,North,0,0.0,1.0,92,0.00,,,0.01,,2013-02-09 11:21:00,
2013-02-09 11:31:00,37.0,35.0,30.11,North,0,0.0,1.0,92,0.00,,,0.01,,2013-02-09 11:31:00,
2013-02-09 11:41:00,37.0,35.0,30.11,North,0,0.0,1.0,92,0.00,,,0.01,,2013-02-09 11:41:00,
2013-02-09 11:52:00,37.0,35.0,30.11,North,0,0.0,2.0,92,0.00,,,0.01,,2013-02-09 11:52:00,
2013-02-09 12:02:00,37.0,35.0,30.10,North,0,0.0,4.0,92,0.00,,,0.00,,2013-02-09 12:02:00,
2013-02-09 12:11:00,37.0,35.0,30.10,North,0,0.0,4.0,92,0.00,,,0.00,,2013-02-09 12:11:00,
2013-02-09 12:21:00,37.0,35.0,30.10,North,0,0.0,4.0,92,0.00,,,0.00,,2013-02-09 12:21:00,
2013-02-09 12:32:00,37.0,35.0,30.10,North,0,0.0,4.0,92,0.00,,,0.00,,2013-02-09 12:32:00,
2013-02-09 12:41:00,37.0,35.0,30.10,North,0,0.0,4.0,92,0.00,,,0.00,,2013-02-09 12:41:00,
2013-02-09 13:02:00,37.0,35.0,30.08,North,0,0.0,1.0,92,0.01,,,0.01,,2013-02-09 13:02:00,
2013-02-09 13:11:00,37.0,35.0,30.08,North,0,0.0,1.0,92,0.01,,,0.01,,2013-02-09 13:11:00,
2013-02-09 13:21:00,37.0,35.0,30.08,North,0,0.0,1.0,92,0.01,,,0.01,,2013-02-09 13:21:00,
2013-02-09 13:31:00,37.0,35.0,30.08,North,0,0.0,1.0,92,0.01,,,0.01,,2013-02-09 13:31:00,
2013-02-09 13:41:00,37.0,35.0,30.08,North,0,0.0,1.0,92,0.01,,,0.01,,2013-02-09 13:41:00,
2013-02-09 13:52:00,38.0,36.0,30.07,North,0,0.0,2.0,93,0.00,,,0.01,,2013-02-09 13:52:00,
2013-02-09 14:01:00,38.0,36.0,30.07,North,0,0.0,2.0,93,0.00,,,0.01,,2013-02-09 14:01:00,
2013-02-09 14:11:00,38.0,36.0,30.07,North,0,0.0,2.0,93,0.00,,,0.01,,2013-02-09 14:11:00,
2013-02-09 14:21:00,38.0,36.0,30.06,North,0,0.0,1.0,92,0.00,,,0.01,,2013-02-09 14:21:00,
2013-02-09 14:31:00,38.0,36.0,30.06,North,0,0.0,1.0,92,0.01,,,0.02,,2013-02-09 14:31:00,
2013-02-09 14:41:00,38.0,36.0,30.06,North,0,0.0,1.0,92,0.01,,,0.02,,2013-02-09 14:41:00,
2013-02-09 14:52:00,38.0,36.0,30.06,North,0,0.0,1.0,92,0.01,,,0.02,,2013-02-09 14:52:00,
2013-02-09 15:01:00,38.0,36.0,30.06,North,0,0.0,1.0,92,0.01,,,0.02,,2013-02-09 15:01:00,
2013-02-09 15:11:00,38.0,36.0,30.06,North,0,0.0,1.0,92,0.01,,,0.02,,2013-02-09 15:11:00,
2013-02-09 15:21:00,38.0,36.0,30.04,North,0,0.0,1.0,93,0.02,,,0.03,,2013-02-09 15:21:00,
2013-02-09 15:31:00,38.0,36.0,30.03,North,0,0.0,2.0,93,0.01,,,0.03,,2013-02-09 15:31:00,
2013-02-09 15:41:00,38.0,36.0,30.03,North,0,0.0,2.0,93,0.01,,,0.03,,2013-02-09 15:41:00,
2013-02-09 15:51:00,38.0,36.0,30.03,North,0,0.0,2.0,93,0.01,,,0.03,,2013-02-09 15:51:00,
2013-02-09 16:01:00,37.0,35.0,30.03,North,0,0.0,1.0,93,0.00,,,0.03,,2013-02-09 16:01:00,
2013-02-09 16:11:00,37.0,35.0,30.03,North,0,0.0,1.0,93,0.00,,,0.03,,2013-02-09 16:11:00,
2013-02-09 16:22:00,38.0,36.0,30.02,North,0,0.0,2.0,93,0.00,,,0.03,,2013-02-09 16:22:00,
2013-02-09 16:31:00,37.0,35.0,30.02,North,0,0.0,1.0,93,0.00,,,0.03,,2013-02-09 16:31:00,
2013-02-09 16:41:00,37.0,35.0,30.02,North,0,0.0,1.0,93,0.00,,,0.03,,2013-02-09 16:41:00,
2013-02-09 16:51:00,37.0,35.0,30.02,North,0,0.0,1.0,93,0.00,,,0.03,,2013-02-09 16:51:00,
2013-02-09 17:01:00,37.0,35.0,30.02,North,0,0.0,1.0,93,0.00,,,0.03,,2013-02-09 17:01:00,
2013-02-09 17:11:00,37.0,35.0,30.02,North,0,0.0,1.0,93,0.00,,,0.03,,2013-02-09 17:11:00,
2013-02-09 17:52:00,37.0,35.0,30.01,North,0,0.0,3.0,93,0.00,,,0.03,,2013-02-09 17:52:00,
2013-02-09 18:01:00,37.0,35.0,30.01,North,0,0.0,3.0,93,0.00,,,0.03,,2013-02-09 18:01:00,
2013-02-09 18:11:00,37.0,35.0,30.01,North,0,0.0,3.0,93,0.00,,,0.03,,2013-02-09 18:11:00,
2013-02-09 18:22:00,37.0,35.0,30.00,North,0,0.0,3.0,92,0.00,,,0.03,,2013-02-09 18:22:00,
2013-02-09 18:32:00,37.0,35.0,30.00,North,0,0.0,3.0,92,0.00,,,0.03,,2013-02-09 18:32:00,
2013-02-09 18:42:00,37.0,35.0,30.00,North,0,0.0,3.0,92,0.00,,,0.03,,2013-02-09 18:42:00,
2013-02-09 18:52:00,37.0,35.0,30.00,North,0,0.0,1.0,92,0.00,,,0.03,,2013-02-09 18:52:00,
2013-02-09 19:01:00,37.0,35.0,29.98,North,0,0.0,2.0,92,0.00,,,0.03,,2013-02-09 19:01:00,
2013-02-09 19:11:00,37.0,35.0,29.98,North,0,0.0,2.0,92,0.00,,,0.03,,2013-02-09 19:11:00,
2013-02-09 19:21:00,37.0,35.0,29.98,North,0,0.0,2.0,92,0.00,,,0.03,,2013-02-09 19:21:00,
2013-02-09 19:31:00,37.0,35.0,29.98,North,0,0.0,2.0,92,0.00,,,0.03,,2013-02-09 19:31:00,
2013-02-09 19:41:00,37.0,35.0,29.98,North,0,0.0,2.0,92,0.00,,,0.03,,2013-02-09 19:41:00,
2013-02-09 19:52:00,37.0,35.0,29.97,North,0,0.0,2.0,93,0.00,,,0.03,,2013-02-09 19:52:00,
2013-02-09 20:01:00,37.0,35.0,29.96,North,0,0.0,1.0,93,0.00,,,0.03,,2013-02-09 20:01:00,
2013-02-09 20:11:00,37.0,35.0,29.96,North,0,0.0,1.0,93,0.00,,,0.03,,2013-02-09 20:11:00,
2013-02-09 20:21:00,37.0,35.0,29.96,North,0,0.0,1.0,93,0.00,,,0.03,,2013-02-09 20:21:00,
2013-02-09 20:30:00,37.0,35.0,29.95,North,0,0.0,3.0,93,0.00,,,0.03,,2013-02-09 20:30:00,
2013-02-09 20:31:00,37.0,35.0,29.96,North,0,0.0,1.0,93,0.00,,,0.03,,2013-02-09 20:31:00,
2013-02-09 20:41:00,37.0,35.0,29.96,North,0,0.0,1.0,93,0.00,,,0.03,,2013-02-09 20:41:00,
2013-02-09 20:52:00,37.0,35.0,29.95,North,0,0.0,3.0,93,0.00,,,0.03,,2013-02-09 20:52:00,
2013-02-09 21:01:00,37.0,35.0,29.95,North,0,0.0,3.0,93,0.00,,,0.03,,2013-02-09 21:01:00,
2013-02-09 21:11:00,37.0,35.0,29.95,North,0,0.0,3.0,93,0.00,,,0.03,,2013-02-09 21:11:00,
2013-02-09 21:21:00,37.0,35.0,29.95,North,0,0.0,3.0,93,0.00,,,0.03,,2013-02-09 21:21:00,
2013-02-09 21:52:00,37.0,35.0,29.91,North,0,0.0,2.0,94,0.00,,,0.03,,2013-02-09 21:52:00,
2013-02-09 22:01:00,37.0,35.0,29.91,North,0,0.0,2.0,94,0.00,,,0.03,,2013-02-09 22:01:00,
2013-02-09 22:11:00,37.0,35.0,29.91,North,0,0.0,2.0,94,0.00,,,0.03,,2013-02-09 22:11:00,
2013-02-09 22:21:00,37.0,35.0,29.91,North,0,0.0,2.0,94,0.00,,,0.03,,2013-02-09 22:21:00,
2013-02-09 22:31:00,37.0,35.0,29.90,North,0,0.0,3.0,94,0.00,,,0.03,,2013-02-09 22:31:00,
2013-02-09 22:41:00,37.0,35.0,29.90,North,0,0.0,3.0,94,0.00,,,0.03,,2013-02-09 22:41:00,
2013-02-09 22:51:00,37.0,35.0,29.89,North,0,0.0,2.0,94,0.00,,,0.03,,2013-02-09 22:51:00,
2013-02-09 23:01:00,37.0,35.0,29.89,North,0,0.0,2.0,94,0.00,,,0.03,,2013-02-09 23:01:00,
2013-02-09 23:11:00,37.0,35.0,29.89,North,0,0.0,2.0,94,0.00,,,0.03,,2013-02-09 23:11:00,
2013-02-09 23:21:00,37.0,35.0,29.88,North,0,0.0,2.0,94,0.00,,,0.03,,2013-02-09 23:21:00,
2013-02-09 23:31:00,37.0,36.0,29.87,North,0,0.0,2.0,95,0.00,,,0.03,,2013-02-09 23:31:00,
2013-02-09 23:41:00,37.0,36.0,29.87,North,0,0.0,2.0,95,0.00,,,0.03,,2013-02-09 23:41:00,
2013-02-09 23:52:00,37.0,36.0,29.87,North,0,0.0,2.0,95,0.00,,,0.03,,2013-02-09 23:52:00,